EW6651 Weather Reports


Display with metric or nautical units.
time (UTC)temp
F
wind
direction
speed
MPH
gust
MPH
rain 1hr
in
rain 24hr
in
rain mn
in
humidity
%
barometer
mb
20260504193039 71 241 2.0 8.0 0.00 0.00 0.00 38 1006.4
20260504191539 71 264 3.0 10.0 0.00 0.00 0.00 34 1006.5
20260504190040 71 352 2.0 16.0 0.00 0.00 0.00 33 1006.6
20260504184535 71 199 4.0 14.0 0.00 0.00 0.00 36 1006.5
20260504183032 70 278 4.0 9.0 0.00 0.00 0.00 35 1006.7
20260504181538 69 224 2.0 8.0 0.00 0.00 0.00 36 1006.7
20260504180028 68 323 1.0 7.0 0.00 0.00 0.00 36 1006.8
20260504174526 68 257 1.0 8.0 0.00 0.00 0.00 35 1006.9
20260504173025 68 248 3.0 13.0 0.00 0.00 0.00 34 1007.0
20260504171522 67 284 6.0 15.0 0.00 0.00 0.00 35 1007.0
20260504081600 44 301 0.0 1.0 0.00 0.03 0.00 68 1009.9
20260504044544 39 300 0.0 2.0 0.00 0.03 0.00 66 1010.2
20260504043035 38 286 0.0 1.0 0.00 0.03 0.00 66 1010.1
20260504041533 38 292 0.0 0.0 0.00 0.03 0.00 67 1010.0
20260504040042 38 282 0.0 0.0 0.00 0.03 0.00 67 1010.0
20260504034530 38 282 0.0 1.0 0.00 0.03 0.03 68 1010.0
20260504033029 37 297 0.0 0.0 0.00 0.03 0.03 68 1009.9
20260504031530 37 297 0.0 0.0 0.00 0.03 0.03 68 1009.7
20260504030028 37 297 0.0 0.0 0.00 0.03 0.03 71 1009.8
20260504024527 37 297 0.0 0.0 0.00 0.03 0.03 71 1009.8
20260504023027 37 297 0.0 0.0 0.00 0.03 0.03 71 1009.7
20260504021527 37 297 0.0 0.0 0.00 0.03 0.03 70 1009.8
20260504020027 37 297 0.0 0.0 0.00 0.03 0.03 70 1009.7
20260504014525 37 297 0.0 0.0 0.00 0.03 0.03 71 1009.6
20260504013030 38 297 0.0 0.0 0.00 0.03 0.03 69 1009.5
20260504011526 38 297 0.0 0.0 0.00 0.03 0.03 68 1009.3
20260504010024 39 297 0.0 0.0 0.00 0.03 0.03 66 1009.1
20260504004523 40 297 0.0 0.0 0.00 0.03 0.03 64 1008.9
20260504003025 41 297 0.0 0.0 0.00 0.03 0.03 63 1008.8
20260504001522 43 297 0.0 0.0 0.00 0.03 0.03 59 1008.7
20260504000022 45 297 0.0 1.0 0.00 0.03 0.03 56 1008.5
20260503234521 46 297 0.0 4.0 0.00 0.05 0.03 53 1008.4
20260503233021 47 313 0.0 3.0 0.00 0.05 0.03 52 1008.2
20260503231522 47 305 2.0 5.0 0.00 0.05 0.03 52 1008.1
20260503230020 47 323 0.0 4.0 0.00 0.05 0.03 52 1008.0
20260503224519 48 328 1.0 4.0 0.00 0.08 0.03 50 1007.9
20260503223019 48 285 0.0 5.0 0.00 0.08 0.03 51 1007.7
20260503221518 48 326 1.0 6.0 0.00 0.08 0.03 48 1007.6
20260503220018 49 61 3.0 6.0 0.00 0.08 0.03 47 1007.5
20260503214517 48 309 3.0 6.0 0.00 0.13 0.03 48 1007.4
20260503213017 48 302 3.0 8.0 0.00 0.13 0.03 46 1007.2
20260503211518 49 318 3.0 10.0 0.00 0.13 0.03 46 1007.1
20260503210017 49 334 3.0 8.0 0.00 0.13 0.03 45 1006.9
20260503204514 50 290 3.0 8.0 0.00 0.13 0.03 44 1006.8
20260503203014 49 330 4.0 9.0 0.00 0.13 0.03 48 1006.7
20260503201513 49 8 2.0 8.0 0.00 0.13 0.03 49 1006.7
20260503200013 49 8 2.0 5.0 0.00 0.13 0.03 47 1006.7
20260503194512 50 323 3.0 8.0 0.00 0.20 0.03 45 1006.5